Zurück zum Katalog

SARA

AktivAmateurfunkSSO
NORAD 21578·PAYLOAD·🇫🇷 France

Gestartet Jul 17, 1991 von Guiana Space Centre

Loading…

Nächste Überflüge (nächste 24 Stunden)

TLE

AktuellSource: Space-Track

Epoche: Sep 14, 2026, 15:07 UTC

1 21578U 91050E   26257.62993823  .00000508  00000-0  11714-3 0  9992
2 21578  98.0867 303.9390 0001434 218.6389 303.2629 14.59244726859358

Verfolge SARA in Echtzeit mit AllMySat

Download on the App Store